Showing default

ORBCOMM FM 116, 41189

Orbit data source: Space-Track

ORBCOMM FM 116, 41189 is a payload satellite owned by Orbcomm (US) in LEO that was launched on Tue, 22 Dec 2015 UTC via an FALCON 9 launch vehicle from the Air Force Eastern Test Range (AFETR). Payloads include a variety of satellites, spacecraft, and rockets equipped with specific instruments for various scientific and technological missions. These include communications satellites like Starlink; space stations such as the ISS; scientific satellites like the Hubble; Earth observation satellites from companies like Planet Labs, Umbra, and HawkEye 360; GPS; miniature CubeSats for education and research; and military/defense satellites.

Loading next visibility...
ORBCOMM FM 116 details
Identifier
41189, 2015-081L
Orbit
LEO
Last TLE update1 day ago
Origin
Flag of USOrbcomm (US / ORB)
ManufacturerSNC Louisville
MissionOperational Commercial Communications
Bus & MotorSN-100A, Unknown motor
Mass172 kg wet, 158 kg dry
Launch date (UTC)
2015-12-22 (9 years ago)
Launch vehicle
FALCON 9
Launch site
Air Force Eastern Test Range (AFETR)
Object type
Payload
Rocket body
Debris
Shape & HBRBox + 1 Pan + 1 Ant, 13 m
Radar Cross Section2.222 m², Medium (>0.1 m² and < 1m²)

Expand to show TLE details & history

TLE from 1 day ago
0 ORBCOMM FM 116
1 41189U 15081L   24339.42465711  .00003033  00000-0  69726-3 0  9991
2 41189  47.0019  35.0145 0002986 248.5806 111.4761 14.57521056477232
Epoch: 2024-12-04T10:11Z
Definitive object data (Epoch: 2024-12-04T10:11:30.374Z)
Latitude-0°
Longitude168.41794°
Altitude702.179 km
Speed7.506 km/s
True Right ascension02h 20m 03s
True Declination0° 00' 00"
Sunlit
Object was in full shadow at TLE epoch
Visualization TLE readout
Latitude-46.20169°
Longitude58.93768°
Altitude714.159 km
Speed7.5 km/s
Apparent Right ascension19h 42m 32s
Apparent Declination-43° 29' 35"
Sunlit
Object is in daylight
Visualization observer readout
Local Sidereal Time08:23:04
Azimuth118.614° SE
Elevation-81.637°
Doppler factor1
Orbital elements
Apogee altitude704.538 km
Perigee altitude700.309 km
Semi-major axis7,080.561 km
Eccentricity0.0002986
Inclination47.0019°
RAAN35.0145°
Arg. of periapsis248.5806°
True anomaly111.50794°
Mean anomaly111.4761°
Eccentric anomaly111.49202°
Mean motion3.64285 °/min
BSTAR0.00069726
Orbital period98.82 mins
Loading maneuver chart data...
Loading historical data...
Loading historical data...
Loading historical data...
Loading historical data...
Loading historical data...
Loading historical data...
Loading historical data...

ORBCOMM FM 116 Visibility forecast

Observer location: undefined°, undefined

Span
Click to sort rows by Start time (UTC) header in descending order
Start Az.
Max El. time (UTC)
Max El. Az.
Max El.
End time (UTC)
End Az.
9 mins2024-12-05 11:16:41.637Z303.276° NW2024-12-05 11:20:41.637Z3.1° NNE35.483°2024-12-05 11:25:41.637Z88.604° E
7 mins2024-12-05 13:01:41.637Z288.76° WNW2024-12-05 13:04:41.637Z218.385° SW41.884°2024-12-05 13:08:41.637Z135.316° SSE
5 mins2024-12-06 05:07:41.637Z162.296° S2024-12-06 05:09:41.637Z135.189° SSE16.292°2024-12-06 05:12:41.637Z96.372° ESE
8 mins2024-12-06 06:49:41.637Z231.237° WSW2024-12-06 06:52:41.637Z164.701° S44.144°2024-12-06 06:57:41.637Z63.987° ENE
7 mins2024-12-06 08:33:41.637Z286.422° WNW2024-12-06 08:36:41.637Z348.715° N34.093°2024-12-06 08:40:41.637Z55.896° ENE
7 mins2024-12-06 10:17:41.637Z307.231° NW2024-12-06 10:20:41.637Z359.303° N31.812°2024-12-06 10:24:41.637Z71.754° E
|